User: anonymous   Login
Location: Kuffner-Sternwarte
(48.2130°N, 16.2960°E)
Time: 08:00:45
(UTC+01:00)
Language:

COROT - Orbit

View from above orbital plane
View from above orbital plane
View from above satellite
View from above satellite

Ground track
Ground track

The orbit data is extracted from the following two-line orbital elements,

1 29678U 06063A   19078.33923579 +.00000167 +00000-0 +33635-4 0  9991
2 29678 090.0418 017.8147 0204015 107.6569 254.7026 14.44252395632455
Epoch (UTC): 19 March 2019 08:08:29
Eccentricity: 0.0204015
inclination: 90.0418°
perigee height: 599 km
apogee height: 890 km
right ascension of ascending node: 17.8147°
argument of perigee: 107.6569°
revolutions per day: 14.44252395
mean anomaly at epoch: 254.7026°
orbit number at epoch: 63245

The dashed part of the orbit path shows where the satellite is in the earth's shadow,  

DLR